Weather Roundup
Issued by NWS

Home | Current Version | Previous Version | Graphics & Text | Print | Product List | Glossary Off
Versions: 1 2 3 4 5 6 7 8 9 10 11 12 13 14 15 16 17 18 19 20 21 22 23 24 25 26 27 28 29 30 31 32 33 34 35 36 37 38 39 40 41 42 43 44 45 46 47 48 49 50

159
NZUS93 KARX 262110
HRRWXR

CURRENT HOURLY OBSERVATIONS ACROSS
MUCH OF THE UPPER MISSISSIPPI VALLEY
NATIONAL WEATHER SERVICE LA CROSSE WI
400 PM CDT THU MAY 26 2016


...SOUTHEAST MINNESOTA...


CITY           SKY/WX    TMP DP  RH WIND       PRES   REMARKS
ROCHESTER      SUNNY     77  59  53 W12       29.84F
ROCHESTER/MAYO FAIR      78  52  40 W13G21    29.83F
WINONA         MOSUNNY   81  55  41 W9        29.82F
AUSTIN         SUNNY     79  54  41 W9        29.83F
ALBERT LEA     SUNNY     79  54  41 W7        29.83F
DODGE CENTER   SUNNY     79  52  38 W12G18    29.84F
PRESTON        SUNNY     77  59  52 SW8       29.85F
OWATONNA       SUNNY     79  50  36 SW9       29.83F
FARIBAULT      MOSUNNY   79  54  41 W8        29.84F
$$

...ELSEWHERE IN MINNESOTA...


CITY           SKY/WX    TMP DP  RH WIND       PRES   REMARKS
MINNEAPOLIS    MOSUNNY   80  50  34 W15G22    29.81S
INTNL FALLS    SUNNY     75  51  43 W6G16     29.73S
DULUTH         MOSUNNY   69  57  65 SE5       29.79F
RED WING       SUNNY     82  46  28 W12       29.80F
REDWOOD FALLS  MOSUNNY   79  48  33 W7        29.81F
MANKATO        SUNNY     77  50  38 W8        29.83F
WORTHINGTON    SUNNY     75  54  47 SW5       29.83F
FAIRMONT       SUNNY     79  46  31 SW3       29.81F
$$

...SOUTHWEST WISCONSIN...


CITY           SKY/WX    TMP DP  RH WIND       PRES   REMARKS
LA CROSSE      SUNNY     83  58  42 W13       29.82F
PRAIRIE DU CHI SUNNY     82  54  37 W8        29.83F
BOSCOBEL       SUNNY     85  55  35 W12       29.83F
LONE ROCK      SUNNY     85  53  33 W12       29.83F
PLATTEVILLE    CLOUDY    84  53  34 W12       29.85F
FORT MC COY    MOSUNNY   81  58  46 W12       29.84F
CAMP DOUGLAS   SUNNY     80  67  64 W10G22    29.84F
MAUSTON-NEW LI CLEAR     80  62  54 W8        29.83F
VIROQUA        FAIR      79  59  49 W14G21    29.87F
WIS DELLS      SUNNY     81  55  40 W13       29.84F
$$

...ELSEWHERE IN WISCONSIN...


CITY           SKY/WX    TMP DP  RH WIND       PRES   REMARKS
MILWAUKEE      PTSUNNY   83  60  45 SW13      29.83F
MADISON        PTSUNNY   83  54  36 W6        29.82F
GREEN BAY      MOSUNNY   80  61  52 W13       29.82S
EAU CLAIRE     MOSUNNY   80  57  45 SW13      29.80F
BLACK RVR FLS  FAIR      82  55  39 W10G17    29.82F
MEDFORD        MOSUNNY   74  59  59 W9G16     29.84F
WAUSAU         MOSUNNY   78  57  48 W14       29.82F
WIS RAPIDS     MOSUNNY   80  56  43 W10G18    29.84F
MARSHFIELD     MOSUNNY   78  58  49 W10G21    29.83F
RICE LAKE      MOSUNNY   79  50  35 W12       29.82S
$$

...NORTHEAST IOWA...


CITY           SKY/WX    TMP DP  RH WIND       PRES   REMARKS
WATERLOO       SUNNY     80  57  45 SE5       29.80F
DUBUQUE        MOSUNNY   82  57  42 W8        29.85F
DECORAH        MOSUNNY   79  61  53 SW8G16    29.84F
MASON CITY     SUNNY     80  61  52 VRB3      29.83F
CHARLES CITY   SUNNY     81  57  44 VRB6      29.83F
OELWEIN        CLOUDY    81  59  47 W6        29.84F
$$

...ELSEWHERE IN IOWA...


CITY           SKY/WX    TMP DP  RH WIND       PRES   REMARKS
DES MOINES     CLOUDY    79  66  64 E7        29.79F
IOWA CITY      CLOUDY    84  60  44 W3        29.82F
FORT DODGE     SUNNY     79  59  50 E7        29.83S
MARSHALLTOWN   CLOUDY    80  62  54 SE7       29.80F
CEDAR RAPIDS   PTSUNNY   80  64  58 CALM      29.81F
$$

...NORTHERN ILLINOIS...


CITY           SKY/WX    TMP DP  RH WIND       PRES   REMARKS
CHICAGO-OHARE  PTSUNNY   82  64  54 SW13G18   29.84F
CHICAGO-MIDWAY PTSUNNY   83  61  47 SW13      29.85F
MOLINE         CLOUDY    87  64  46 NW7       29.81F
ROCKFORD       CLOUDY    83  63  50 W8        29.86F
PEORIA         SUNNY     85  65  51 S8        29.86F
$$

NOTE: "FAIR" INDICATES FEW OR NO CLOUDS BELOW 12,000 FEET WITH NO
SIGNIFICANT WEATHER AND/OR OBSTRUCTIONS TO VISIBILITY. WIND
SPEEDS ARE IN MILES-PER-HOUR.




USA.gov is the U.S. government's official web portal to all federal, state and local government web resources and services.